Glasgow, United Kingdom

3:30 AM BST on October 17, 2017 (GMT +0100)
Glasgow

Weather History for EGPF - February, 2014

Change the Weather History Date:

Monday, February 17, 2014

  Actual Average Record
Temperature  
Mean Temperature 40 °F -  
Max Temperature 42 °F 46 °F 51 °F (1997)
Min Temperature 37 °F 33 °F 26 °F (2003)
Degree Days  
Heating Degree Days 26    
Moisture  
Dew Point 39 °F    
Average Humidity 93    
Maximum Humidity 100    
Minimum Humidity 87    
Precipitation  
Precipitation 0.00 in - - ()
Sea Level Pressure  
Sea Level Pressure 29.57 in    
Wind  
Wind Speed 9 mph ()    
Max Wind Speed 15 mph    
Max Gust Speed -    
Visibility 5.6 miles    
Events Rain    
Averages and records for this station are not official NWS values.
T = Trace of Precipitation, MM = Missing Value Source: Averaged Metar Reports

Daily Weather History Graph

Daily Weather History Graph

Search for Another Location

Airport or City:

Trip Planner

Search our weather history database for the weather conditions in past years. The results will help you decide how hot, cold, wet, or windy it might be!

Date:

Astronomy

Feb. 17, 2014 Rise Set
Actual Time 7:38 AM GMT 5:26 PM GMT
Civil Twilight 6:59 AM GMT 6:04 PM GMT
Nautical Twilight 6:16 AM GMT 6:47 PM GMT
Astronomical Twilight 5:33 AM GMT 7:30 PM GMT
Moon 8:44 PM GMT 7:59 AM GMT
Length of Visible Light 11h 04m
Length of Day
9h 47m
Waning Gibbous, 94% of the Moon is Illuminated
Feb 17
Waning Gibbous
Feb 22
Last Quarter
Mar 1
New
Mar 8
First Quarter
Mar 16
Full

Hourly Weather History & Observations

Time (GMT) Temp. Windchill Dew Point Humidity Pressure Visibility Wind Dir Wind Speed Gust Speed Precip Events Conditions
12:20 AM 37.4 °F 32.1 °F 35.6 °F 93% 29.56 in 6.2 mi ENE 6.9 mph - N/A Rain Light Rain
12:50 AM 37.4 °F 31.4 °F 35.6 °F 93% 29.56 in 6.2 mi ENE 8.1 mph - N/A Rain Light Rain
1:20 AM 37.4 °F 31.4 °F 35.6 °F 93% 29.56 in 6.2 mi ENE 8.1 mph - N/A Rain Light Rain
1:50 AM 37.4 °F 30.8 °F 35.6 °F 93% 29.56 in 6.2 mi ENE 9.2 mph - N/A   Overcast
2:20 AM 37.4 °F 30.8 °F 35.6 °F 93% 29.56 in 6.2 mi ENE 9.2 mph - N/A Rain Light Rain
2:50 AM 37.4 °F 31.4 °F 35.6 °F 93% 29.56 in 6.2 mi ENE 8.1 mph - N/A Rain Light Rain
3:20 AM 37.4 °F 31.4 °F 35.6 °F 93% 29.56 in 6.2 mi ENE 8.1 mph - N/A Rain Light Rain
3:50 AM 37.4 °F 30.8 °F 35.6 °F 93% 29.56 in 6.2 mi ENE 9.2 mph - N/A   Overcast
4:20 AM 37.4 °F 30.3 °F 35.6 °F 93% 29.56 in 6.2 mi ENE 10.4 mph - N/A Rain Light Rain
4:50 AM 37.4 °F 30.8 °F 35.6 °F 93% 29.56 in 5.0 mi ENE 9.2 mph - N/A Rain Light Rain
5:20 AM 37.4 °F 30.3 °F 35.6 °F 93% 29.56 in 4.3 mi ENE 10.4 mph - N/A Rain Light Rain
5:50 AM 37.4 °F 30.3 °F 35.6 °F 93% 29.56 in 5.0 mi ENE 10.4 mph - N/A Rain Light Rain
6:20 AM 37.4 °F 30.3 °F 35.6 °F 93% 29.56 in 6.2 mi ENE 10.4 mph - N/A Rain Light Rain
6:50 AM 37.4 °F 30.8 °F 35.6 °F 93% 29.56 in 6.2 mi ENE 9.2 mph - N/A Rain Light Rain
7:20 AM 37.4 °F 30.8 °F 35.6 °F 93% 29.56 in 6.2 mi ENE 9.2 mph - N/A Rain Light Rain
7:50 AM 37.4 °F 31.4 °F 35.6 °F 93% 29.59 in 6.2 mi East 8.1 mph - N/A Rain Light Rain
8:20 AM 39.2 °F 33.0 °F 35.6 °F 87% 29.59 in 6.2 mi ENE 9.2 mph - N/A Rain Light Rain
8:50 AM 39.2 °F 33.0 °F 35.6 °F 87% 29.59 in 6.2 mi ENE 9.2 mph - N/A Rain Light Rain
9:20 AM 39.2 °F 33.0 °F 37.4 °F 93% 29.59 in 5.6 mi ENE 9.2 mph - N/A Rain Light Rain
9:50 AM 39.2 °F 33.0 °F 37.4 °F 93% 29.59 in 6.2 mi ENE 9.2 mph - N/A Rain Light Rain
10:20 AM 39.2 °F 32.5 °F 37.4 °F 93% 29.59 in 6.2 mi ENE 10.4 mph - N/A Rain Light Rain
10:50 AM 41.0 °F 34.7 °F 37.4 °F 87% 29.59 in 5.6 mi ENE 10.4 mph - N/A Rain Light Rain
11:20 AM 41.0 °F 34.7 °F 39.2 °F 93% 29.59 in 5.6 mi ENE 10.4 mph - N/A Rain Light Rain
11:50 AM 41.0 °F 34.7 °F 39.2 °F 93% 29.59 in 5.0 mi ENE 10.4 mph - N/A Rain Light Rain
12:20 PM 41.0 °F 34.7 °F 39.2 °F 93% 29.59 in 6.2 mi ENE 10.4 mph - N/A Rain Light Rain
12:50 PM 42.8 °F 36.6 °F 39.2 °F 87% 29.59 in 5.0 mi ENE 11.5 mph - N/A Rain Light Rain
1:20 PM 42.8 °F 37.0 °F 39.2 °F 87% 29.59 in 5.0 mi ENE 10.4 mph - N/A Rain Light Rain
1:50 PM 42.8 °F 36.6 °F 41.0 °F 93% 29.59 in 5.0 mi ENE 11.5 mph - N/A Rain Light Rain
2:20 PM 42.8 °F 36.2 °F 41.0 °F 93% 29.56 in 5.0 mi ENE 12.7 mph - N/A Rain Light Rain
2:50 PM 42.8 °F 36.6 °F 41.0 °F 93% 29.56 in 4.3 mi ENE 11.5 mph - N/A Rain Light Rain
3:20 PM 42.8 °F 36.2 °F 41.0 °F 93% 29.56 in 4.3 mi ENE 12.7 mph - N/A Rain Light Rain
3:50 PM 41.0 °F 33.9 °F 41.0 °F 100% 29.56 in 6.2 mi ENE 12.7 mph - N/A Rain Light Rain
4:20 PM 42.8 °F 35.4 °F 41.0 °F 93% 29.56 in 6.2 mi ENE 15.0 mph - N/A Rain Light Rain
4:50 PM 42.8 °F 36.6 °F 41.0 °F 93% 29.56 in 6.2 mi East 11.5 mph - N/A Rain Light Rain
5:20 PM 42.8 °F 36.6 °F 41.0 °F 93% 29.56 in 6.2 mi ENE 11.5 mph - N/A Rain Light Rain
5:50 PM 42.8 °F 37.0 °F 41.0 °F 93% 29.56 in 5.6 mi East 10.4 mph - N/A Rain Light Rain
6:20 PM 42.8 °F 37.0 °F 41.0 °F 93% 29.56 in 5.0 mi ENE 10.4 mph - N/A Rain Light Rain
6:50 PM 42.8 °F 36.2 °F 41.0 °F 93% 29.56 in 4.3 mi ENE 12.7 mph - N/A Rain Light Rain
7:20 PM 42.8 °F 36.6 °F 41.0 °F 93% 29.56 in 5.0 mi East 11.5 mph - N/A Rain Light Rain
7:50 PM 42.8 °F 37.0 °F 41.0 °F 93% 29.56 in 6.2 mi East 10.4 mph - N/A Rain Light Rain
8:20 PM 42.8 °F 37.5 °F 41.0 °F 93% 29.59 in 6.2 mi East 9.2 mph - N/A Rain Light Rain
8:50 PM 42.8 °F 38.0 °F 41.0 °F 93% 29.59 in 5.6 mi East 8.1 mph - N/A Rain Light Rain
9:20 PM 42.8 °F 37.0 °F 41.0 °F 93% 29.59 in 5.6 mi East 10.4 mph - N/A Rain Light Rain
9:50 PM 42.8 °F 36.6 °F 42.8 °F 100% 29.59 in 6.2 mi ENE 11.5 mph - N/A   Mostly Cloudy
10:20 PM 42.8 °F 37.5 °F 42.8 °F 100% 29.59 in 5.6 mi East 9.2 mph - N/A   Mostly Cloudy
10:50 PM 42.8 °F 37.5 °F 42.8 °F 100% 29.56 in 5.0 mi East 9.2 mph - N/A   Overcast
11:20 PM 42.8 °F 37.5 °F 42.8 °F 100% 29.56 in 4.3 mi ENE 9.2 mph - N/A   Mostly Cloudy
11:50 PM 42.8 °F 37.0 °F 42.8 °F 100% 29.56 in 4.3 mi ENE 10.4 mph - N/A   Overcast